Regional Weather Roundup
Issued by NWS

Home | Current Version | Previous Version | Graphics & Text | Print | Product List | Glossary On
Versions: 1 2 3 4 5 6 7 8 9 10 11 12 13 14 15 16 17 18 19 20 21 22 23 24 25 26 27 28 29 30 31 32 33 34 35 36 37 38 39 40 41 42 43 44 45 46 47 48 49 50
000
ASUS43 KOAX 200602
RWRNE

WEATHER ROUNDUP FOR NEBRASKA
NATIONAL WEATHER SERVICE OMAHA NE
100 AM CDT WED AUG 20 2014

NOTES: SATELLITE DATA IS BEING USED TO AUGMENT CLOUD COVER ABOVE
       12000 FEET.
       "FAIR" INDICATES FEW OR NO CLOUDS BELOW 12,000 FEET WITH NO
       SIGNIFICANT WEATHER AND/OR OBSTRUCTIONS TO VISIBILITY.

  * THESE STATIONS DO NOT REPORT WEATHER SUCH AS RAIN...SNOW OR FOG.

NEZ001>004-019>022-054>056-200700-
NEBRASKA PANHANDLE

CITY           SKY/WX    TMP DP  RH WIND       PRES   REMARKS
SCOTTSBLUFF    MOCLDY    67  58  72 E7        29.84S
6HR MIN TEMP:  66; 6HR MAX TEMP:  83; 6HR PCP: TRACE;

ALLIANCE       CLOUDY    68  56  65 S6        29.83F
6HR MIN TEMP:  68; 6HR MAX TEMP:  86;

CHADRON        CLOUDY    76  50  40 S10       29.79R
6HR MIN TEMP:  75; 6HR MAX TEMP:  95;

KIMBALL        PTCLDY    61  55  79 SW7       29.89F
SIDNEY         PTCLDY    62  58  86 S5        29.86F
6HR MIN TEMP:  62; 6HR MAX TEMP:  85; 6HR PCP:  0.14;

$$

NEZ057>060-069>072-079>082-200700-
SOUTHWEST NEBRASKA

CITY           SKY/WX    TMP DP  RH WIND       PRES   REMARKS
NORTH PLATTE   LGT RAIN  69  64  84 NE9       29.81F
6HR MIN TEMP:  68; 6HR MAX TEMP:  83; 6HR PCP:  0.01;

IMPERIAL       CLOUDY    67  62  84 SE7       29.80F
6HR MIN TEMP:  67; 6HR MAX TEMP:  90; 6HR PCP:  0.08;

LEXINGTON      CLOUDY    73  67  83 SW3       29.82R
MCCOOK         CLOUDY    73  64  73 N5        29.81S
6HR MIN TEMP:  73; 6HR MAX TEMP:  92;

OGALLALA       CLOUDY    66  63  91 E6        29.78F
$$

NEZ005>010-023>029-035>040-094-200700-
NORTH CENTRAL NEBRASKA

CITY           SKY/WX    TMP DP  RH WIND       PRES   REMARKS
VALENTINE      CLOUDY    75  68  78 SE5       29.79S
6HR MIN TEMP:  75; 6HR MAX TEMP:  88;

AINSWORTH      CLOUDY    73  67  83 SE8       29.80F
BROKEN BOW     CLOUDY    73  70  90 S5        29.81R
6HR MIN TEMP:  73; 6HR MAX TEMP:  84;

O`NEILL        CLOUDY    73  68  83 SE8       29.81S
ORD            CLOUDY    72  68  87 SE6       29.79R
6HR MIN TEMP:  72; 6HR MAX TEMP:  82;

THEDFORD       CLOUDY    68  62  82 SW14      29.82F
$$

NEZ041-046>049-061>064-073>077-083>087-200700-
SOUTH CENTRAL NEBRASKA

CITY           SKY/WX    TMP DP  RH WIND       PRES   REMARKS
GRAND ISLAND   FAIR      76  68  76 SE8       29.80R
6HR MIN TEMP:  75; 6HR MAX TEMP:  85;

AURORA         FAIR      73  71  96 SE5       29.79S
HASTINGS       FAIR      76  64  66 SE8       29.80R
6HR MIN TEMP:  75; 6HR MAX TEMP:  86;

HEBRON         FAIR      75  65  70 S6        29.79S
HOLDREGE       FAIR      75  64  70 CALM      29.79S
KEARNEY *      FAIR      72  66  83 E6        29.80S
$$

NEZ011>018-030>034-042>045-200700-
NORTHEAST NEBRASKA

CITY           SKY/WX    TMP DP  RH WIND       PRES   REMARKS
NORFOLK        FAIR      72  65  78 SE8       29.80F
6HR MIN TEMP:  71; 6HR MAX TEMP:  83;

ALBION         FAIR      72  64  76 SE6       29.80F
BLAIR          FAIR      73  65  74 E5        29.82R
COLUMBUS *     FAIR      70  66  88 E7        29.80F
FREMONT        FAIR      75  66  72 E6        29.81S
TEKAMAH        FAIR      69  65  86 CALM      29.81R
6HR MIN TEMP:  69; 6HR MAX TEMP:  85;

WAYNE          FAIR      68  65  89 CALM      29.81F
$$

NEZ050>053-065>068-078-088>093-200700-
SOUTHEAST NEBRASKA

CITY           SKY/WX    TMP DP  RH WIND       PRES   REMARKS
LINCOLN        FAIR      79  71  76 SE6       29.80S
6HR MIN TEMP:  79; 6HR MAX TEMP:  87;

OMAHA EPPLEY   MOCLDY    76  64  66 SE7       29.81R
6HR MIN TEMP:  76; 6HR MAX TEMP:  86;

BEATRICE       FAIR      76  72  87 SE7       29.80S
FALLS CITY     FAIR      75  72  90 SE6       29.80R
6HR MIN TEMP:  75; 6HR MAX TEMP:  87;

NEBRASKA CITY  FAIR      74  69  84 SE7       29.81S
PLATTSMOUTH    FAIR      74  69  83 SE5       29.82R
$$

NEZ044-045-051>053-067-200700-
OMAHA AREA

CITY           SKY/WX    TMP DP  RH WIND       PRES   REMARKS
OMAHA EPPLEY   MOCLDY    76  64  66 SE7       29.81R
6HR MIN TEMP:  76; 6HR MAX TEMP:  86;

BLAIR          FAIR      73  65  74 E5        29.82R
FREMONT        FAIR      75  66  72 E6        29.81S
OFFUTT AFB     FAIR      70  70 100 E3        29.81R
PLATTSMOUTH    FAIR      74  69  83 SE5       29.82R
WAHOO          FAIR      71  67  86 E5        29.80S
$$



USA.gov is the U.S. government's official web portal to all federal, state and local government web resources and services.